Simultaneous Nadir Overpasses (SNOs) Predictions

Prediction of SNOs between AQUA and GOES-15 Satellite Orbit:

Table of predicted SNOs for the next 14.0 days since TLE Epoch: 11/7/2015
Index Date Time (AQUA) AQUA Lat,Lon GOES-15 Lat,Lon Distance(km) Time Diff (sec)
1 11/07/2015 10:44:06 0.47,-137.11 0.07,-135.23 212.81 80
2 11/09/2015 10:31:54 -0.17,-134.15 0.07,-135.29 129.70 80
3 11/09/2015 22:53:19 -0.88,-139.35 -0.05,-135.28 462.06 80
4 11/11/2015 10:19:42 -0.82,-131.19 0.08,-135.34 471.68 80
5 11/11/2015 22:41:06 -0.29,-136.38 -0.06,-135.33 120.10 80
6 11/13/2015 22:28:53 0.32,-133.42 -0.06,-135.37 221.07 80
7 11/14/2015 10:50:09 0.71,-138.58 0.04,-135.40 361.97 80
8 11/16/2015 10:37:56 0.08,-135.62 0.04,-135.43 21.77 80
9 11/18/2015 10:25:43 -0.56,-132.66 0.04,-135.45 317.81 80
10 11/18/2015 22:47:07 -0.53,-137.85 -0.02,-135.43 275.30 80
11 11/20/2015 22:34:53 0.07,-134.88 -0.02,-135.45 63.85 80




NCC Satellite Simultaneous Nadir Overpasses (SNOs) Prediction Service
